Location: Borojevi?i
(45.0486°N, 16.2297°E)
Time: 21:39:33
(UTC+00:00)

BREEZE-M DEB (TANK) - Pass Details

Date: 08 August 2020
Orbit: 320 x 16292 km, 49.4° (Epoch: 22 September)

Event Time Altitude Azimuth Distance (km) Brightness Sun altitude
Rises 20:43:23 0° 281° (W) 2,301 6.2 -21.6°
Reaches altitude 10° 20:44:45 10° 287° (WNW) 1,662 5.5 -21.8°
Maximum altitude 20:47:55 54° 7° (N) 955 3.7 -22.1°
Drops below altitude 10° 20:57:40 10° 85° (E) 4,966 6.9 -23.0°
Sets 21:05:27 0° 89° (E) 8,074 8.0 -23.8°
